WA8SIE Weather Reports


Display with metric or nautical units.
time (UTC)temp
F
wind
direction
speed
MPH
gust
MPH
rain 1hr
in
rain 24hr
in
rain mn
in
humidity
%
barometer
mb
20260831042011 74 0.0 0.0 0.00 0.00 0.00 99 1014.4
20260831040511 75 0.0 0.0 0.00 0.00 0.00 99 1014.5
20260831040011 75 1 0.0 0.0 0.00 0.00 0.00 99 1014.5
20260831035511 75 0.0 0.0 0.00 0.00 0.00 99 1014.5
20260831035011 75 1 0.0 0.0 0.00 0.00 0.00 98 1014.5
20260831034511 75 0.0 0.0 0.00 0.00 0.00 98 1014.5
20260831034012 75 0.0 0.0 0.00 0.00 0.00 98 1014.6
20260831033511 75 0.0 0.0 0.00 0.00 0.00 98 1014.6
20260831033011 75 1 0.0 0.0 0.00 0.00 0.00 98 1014.6
20260831032011 76 1 0.0 0.0 0.00 0.00 0.00 98 1014.5
20260831031511 76 0.0 0.0 0.00 0.00 0.00 98 1014.5
20260831031011 76 1 0.0 0.0 0.00 0.00 0.00 98 1014.6
20260831030511 76 1 0.0 0.0 0.00 0.00 0.00 98 1014.6
20260831030012 76 0.0 0.0 0.00 0.00 0.00 97 1014.6
20260831025011 76 0.0 0.0 0.00 0.00 0.00 97 1014.4
20260831024511 76 0.0 0.0 0.00 0.00 0.00 97 1014.4
20260831024011 76 0.0 0.0 0.00 0.00 0.00 97 1014.4
20260831023511 76 0.0 0.0 0.00 0.00 0.00 97 1014.4
20260831022512 76 0.0 0.0 0.00 0.00 0.00 97 1014.4
20260831022010 76 0.0 0.0 0.00 0.00 0.00 97 1014.4
20260831021511 76 0.0 0.0 0.00 0.00 0.00 96 1014.4
20260831021011 76 0.0 0.0 0.00 0.00 0.00 96 1014.6
20260831020510 76 0.0 0.0 0.00 0.00 0.00 96 1014.6
20260831014511 76 0.0 0.0 0.00 0.00 0.00 95 1014.6
20260831014010 76 0.0 0.0 0.00 0.00 0.00 95 1014.5
20260831013510 76 1 0.0 0.0 0.00 0.00 0.00 95 1014.5
20260831013011 77 0.0 0.0 0.00 0.00 0.00 94 1014.5
20260831012510 77 0.0 0.0 0.00 0.00 0.00 94 1014.2
20260831012010 77 0.0 0.0 0.00 0.00 0.00 94 1014.2
20260831011511 77 0.0 0.0 0.00 0.00 0.00 93 1014.2
20260831011011 77 1 0.0 0.0 0.00 0.00 0.00 93 1014.2
20260831010511 77 0.0 0.0 0.00 0.00 0.00 92 1014.2
20260831005510 78 0.0 0.0 0.00 0.00 0.00 92 1013.8
20260831005011 78 0.0 0.0 0.00 0.00 0.00 91 1013.8
20260831004510 78 1 0.0 0.0 0.00 0.00 0.00 91 1013.8
20260831004010 78 0.0 1.0 0.00 0.00 0.00 90 1013.8
20260831003510 78 0.0 1.0 0.00 0.00 0.00 90 1013.8
20260831003011 78 0.0 0.0 0.00 0.00 0.00 89 1013.8
20260831002512 78 0.0 0.0 0.00 0.00 0.00 88 1013.7
20260831002010 79 0.0 0.0 0.00 0.00 0.00 87 1013.7
20260831001512 79 0.0 0.0 0.00 0.00 0.00 86 1013.7
20260831001010 79 0.0 0.0 0.00 0.00 0.00 85 1013.6
20260831000510 80 1 0.0 0.0 0.00 0.00 0.00 84 1013.6
20260831000012 80 0.0 0.0 0.00 0.00 0.00 83 1013.6
20260830235510 80 0.0 0.0 0.00 0.00 0.00 82 1013.6
20260830235010 80 1 0.0 0.0 0.00 0.00 0.00 81 1013.6
20260830234510 80 1 0.0 0.0 0.00 0.00 0.00 81 1013.6
20260830234010 80 0.0 1.0 0.00 0.00 0.00 80 1013.3
20260830233510 80 1 0.0 1.0 0.00 0.00 0.00 80 1013.3
20260830233011 81 0.0 0.0 0.00 0.00 0.00 79 1013.3
20260830232510 81 0.0 0.0 0.00 0.00 0.00 79 1013.2
20260830232010 81 0.0 0.0 0.00 0.00 0.00 78 1013.2
20260830231511 81 0.0 0.0 0.00 0.00 0.00 80 1013.2
20260830231011 81 0.0 0.0 0.00 0.00 0.00 80 1013.2
20260830230511 81 0.0 0.0 0.00 0.00 0.00 79 1013.2
20260830230010 82 0.0 0.0 0.00 0.00 0.00 78 1013.2
20260830225511 82 1 0.0 0.0 0.00 0.00 0.00 77 1013.3
20260830225011 82 1 0.0 0.0 0.00 0.00 0.00 76 1013.3
20260830224511 82 0.0 0.0 0.00 0.00 0.00 75 1013.3
20260830224011 83 0.0 0.0 0.00 0.00 0.00 75 1013.4
20260830223511 83 1 0.0 0.0 0.00 0.00 0.00 74 1013.4
20260830223013 83 1 0.0 0.0 0.00 0.00 0.00 75 1013.4
20260830222511 84 0.0 0.0 0.00 0.00 0.00 73 1013.6
20260830222013 84 1 0.0 0.0 0.00 0.00 0.00 70 1013.6
20260830221513 84 0.0 0.0 0.00 0.00 0.00 67 1013.6
20260830221011 84 1 0.0 0.0 0.00 0.00 0.00 66 1013.5
20260830220511 84 1 0.0 0.0 0.00 0.00 0.00 67 1013.5
20260830220011 84 1 0.0 0.0 0.00 0.00 0.00 65 1013.5
20260830215511 84 0.0 4.0 0.00 0.00 0.00 64 1013.6
20260830215011 84 8 0.0 4.0 0.00 0.00 0.00 65 1013.6
20260830214513 84 278 0.0 4.0 0.00 0.00 0.00 65 1013.6
20260830214011 85 274 1.0 4.0 0.00 0.00 0.00 66 1013.7
20260830213512 85 285 0.0 0.0 0.00 0.00 0.00 66 1013.7
20260830213011 85 285 0.0 3.0 0.00 0.00 0.00 63 1013.7
20260830212511 86 285 0.0 3.0 0.00 0.00 0.00 63 1013.6
20260830212012 86 326 0.0 3.0 0.00 0.00 0.00 63 1013.6
20260830211511 85 323 0.0 4.0 0.00 0.00 0.00 62 1013.6
20260830211011 85 323 0.0 5.0 0.00 0.00 0.00 61 1013.6
20260830210513 85 326 0.0 5.0 0.00 0.00 0.00 61 1013.6
20260830210011 85 299 3.0 4.0 0.00 0.00 0.00 64 1013.6
20260830205011 85 312 0.0 0.0 0.00 0.00 0.00 66 1013.7
20260830204511 84 312 0.0 0.0 0.00 0.00 0.00 65 1013.7
20260830204011 84 313 0.0 4.0 0.00 0.00 0.00 67 1013.7
20260830203511 84 313 0.0 4.0 0.00 0.00 0.00 68 1013.7
20260830203011 84 312 2.0 0.0 0.00 0.00 0.00 68 1013.7
20260830202511 83 312 0.0 0.0 0.00 0.00 0.00 68 1014.2
20260830202011 83 312 0.0 0.0 0.00 0.00 0.00 69 1014.2
20260830201511 83 317 0.0 7.0 0.00 0.00 0.00 69 1014.2
20260830200511 84 319 0.0 12.0 0.00 0.00 0.00 66 1014.2
20260830200011 85 333 2.0 10.0 0.00 0.00 0.00 66 1014.2
20260830195511 86 217 0.0 10.0 0.00 0.00 0.00 65 1014.0
20260830195013 86 285 2.0 9.0 0.00 0.00 0.00 63 1014.0
20260830194513 87 256 0.0 16.0 0.00 0.00 0.00 61 1014.0
20260830194011 89 270 4.0 16.0 0.00 0.00 0.00 59 1014.0
20260830193011 90 276 0.0 1.0 0.00 0.00 0.00 58 1014.0
20260830192512 90 265 0.0 2.0 0.00 0.00 0.00 57 1014.0
20260830192011 91 313 0.0 2.0 0.00 0.00 0.00 55 1014.0
20260830191511 91 191 0.0 2.0 0.00 0.00 0.00 59 1014.0
20260830191011 90 251 0.0 2.0 0.00 0.00 0.00 57 1014.2
20260830190012 90 202 0.0 3.0 0.00 0.00 0.00 57 1014.2
20260830185511 90 240 0.0 1.0 0.00 0.00 0.00 58 1014.4
20260830185011 90 269 0.0 4.0 0.00 0.00 0.00 60 1014.4
20260830184511 90 184 0.0 7.0 0.00 0.00 0.00 59 1014.4
20260830183511 89 190 3.0 6.0 0.00 0.00 0.00 59 1014.7
20260830183011 89 274 0.0 6.0 0.00 0.00 0.00 61 1014.7
20260830182011 89 205 3.0 6.0 0.00 0.00 0.00 60 1015.0
20260830181512 89 192 0.0 6.0 0.00 0.00 0.00 59 1015.0
20260830181011 88 343 5.0 7.0 0.00 0.00 0.00 62 1015.2
20260830180511 88 206 1.0 7.0 0.00 0.00 0.00 65 1015.2
20260830180010 88 212 5.0 3.0 0.00 0.00 0.00 64 1015.2
20260830175511 87 243 0.0 5.0 0.00 0.00 0.00 63 1015.6
20260830175011 87 191 0.0 5.0 0.00 0.00 0.00 63 1015.6
20260830173510 88 212 0.0 2.0 0.00 0.00 0.00 64 1015.7
20260830173012 87 213 0.0 10.0 0.00 0.00 0.00 65 1015.7
20260830172510 86 183 0.0 10.0 0.00 0.00 0.00 66 1015.9
20260830172011 86 193 0.0 4.0 0.00 0.00 0.00 66 1015.9
20260830171510 85 195 0.0 5.0 0.00 0.00 0.00 66 1015.9
20260830171010 85 186 0.0 6.0 0.00 0.00 0.00 68 1016.1
20260830170511 86 186 3.0 6.0 0.00 0.00 0.00 65 1016.1
20260830170011 87 314 0.0 5.0 0.00 0.00 0.00 63 1016.1
20260830165510 88 298 0.0 4.0 0.00 0.00 0.00 64 1016.1
20260830165011 88 297 2.0 5.0 0.00 0.00 0.00 64 1016.1
20260830164511 88 310 2.0 6.0 0.00 0.00 0.00 63 1016.1
20260830164011 87 328 0.0 6.0 0.00 0.00 0.00 64 1016.2
20260830163511 87 327 0.0 4.0 0.00 0.00 0.00 63 1016.2
20260830163011 87 291 0.0 7.0 0.00 0.00 0.00 64 1016.2
20260830162012 86 165 0.0 3.0 0.00 0.00 0.00 66 1016.2
20260830161012 86 254 0.0 9.0 0.00 0.00 0.00 65 1016.4
20260830160511 86 302 9.0 2.0 0.00 0.00 0.00 66 1016.4
20260830160011 86 273 0.0 3.0 0.00 0.00 0.00 65 1016.4
20260830155510 86 306 0.0 5.0 0.00 0.00 0.00 66 1016.4
20260830155010 86 323 0.0 6.0 0.00 0.00 0.00 67 1016.4
20260830154510 85 131 0.0 6.0 0.00 0.00 0.00 66 1016.4
20260830154010 85 316 0.0 3.0 0.00 0.00 0.00 66 1016.3
20260830153510 85 231 0.0 5.0 0.00 0.00 0.00 67 1016.3
20260830153012 84 204 0.0 5.0 0.00 0.00 0.00 67 1016.3
20260830152510 84 301 0.0 4.0 0.00 0.00 0.00 68 1016.3
20260830152011 84 48 0.0 2.0 0.00 0.00 0.00 68 1016.3
20260830151510 84 226 0.0 1.0 0.00 0.00 0.00 68 1016.3
20260830151011 84 193 0.0 4.0 0.00 0.00 0.00 70 1016.3
20260830150510 83 193 0.0 4.0 0.00 0.00 0.00 71 1016.3
20260830150010 83 195 0.0 9.0 0.00 0.00 0.00 71 1016.3
20260830145010 82 198 0.0 9.0 0.00 0.00 0.00 70 1016.3
20260830144510 82 195 0.0 6.0 0.00 0.00 0.00 73 1016.3
20260830144010 81 212 0.0 9.0 0.00 0.00 0.00 73 1016.3
20260830143510 81 186 4.0 9.0 0.00 0.00 0.00 73 1016.3
20260830143010 81 217 8.0 7.0 0.00 0.00 0.00 73 1016.3
20260830142513 80 207 2.0 7.0 0.00 0.00 0.00 73 1016.3
20260830142011 80 214 0.0 5.0 0.00 0.00 0.00 75 1016.3
20260830141011 80 192 0.0 9.0 0.00 0.00 0.00 74 1016.2
20260830140511 80 219 0.0 9.0 0.00 0.00 0.00 75 1016.2
20260830140011 79 209 4.0 7.0 0.00 0.00 0.00 77 1016.2
20260830134511 79 165 1.0 5.0 0.00 0.00 0.00 79 1016.2
20260830134011 78 80 2.0 5.0 0.00 0.00 0.00 79 1016.1
20260830133011 77 114 0.0 4.0 0.00 0.00 0.00 85 1016.1
20260830132511 76 114 0.0 4.0 0.00 0.00 0.00 85 1016.1
20260830131511 75 100 0.0 2.0 0.00 0.00 0.00 89 1016.1
20260830131011 75 99 0.0 2.0 0.00 0.00 0.00 91 1016.2
20260830130513 74 99 0.0 2.0 0.00 0.00 0.00 93 1016.2
20260830130011 74 99 1.0 2.0 0.00 0.00 0.00 95 1016.2
20260830125511 74 100 0.0 0.0 0.00 0.00 0.00 99 1016.4
20260830125011 73 99 0.0 0.0 0.00 0.00 0.00 100 1016.4
20260830124511 72 99 0.0 0.0 0.00 0.00 0.00 100 1016.4
20260830124011 72 99 0.0 0.0 0.00 0.00 0.00 100 1016.4
20260830123513 71 100 0.0 0.0 0.00 0.00 0.00 100 1016.4
20260830123011 71 100 0.0 1.0 0.00 0.00 0.00 100 1016.4
20260830122511 70 99 0.0 1.0 0.00 0.00 0.00 100 1016.3
20260830121511 69 101 0.0 2.0 0.00 0.00 0.00 100 1016.3
20260830121011 69 100 0.0 2.0 0.00 0.00 0.00 100 1016.0
20260830120013 68 100 0.0 0.0 0.00 0.00 0.00 100 1016.0
20260830115511 68 100 0.0 0.0 0.00 0.00 0.00 100 1016.1
20260830115011 67 99 0.0 0.0 0.00 0.00 0.00 100 1016.1
20260830114511 67 101 0.0 0.0 0.00 0.00 0.00 100 1016.1
20260830114011 67 99 0.0 0.0 0.00 0.00 0.00 100 1016.1
20260830113011 67 98 0.0 0.0 0.00 0.00 0.00 100 1016.1
20260830112511 67 99 0.0 0.0 0.00 0.00 0.00 100 1016.0
20260830111511 67 100 0.0 0.0 0.00 0.00 0.00 100 1016.0
20260830111011 66 99 0.0 0.0 0.00 0.00 0.00 100 1015.9
20260830110511 67 100 0.0 0.0 0.00 0.00 0.00 100 1015.9
20260830110011 67 100 0.0 0.0 0.00 0.00 0.00 100 1015.9
20260830105511 67 99 0.0 0.0 0.00 0.00 0.00 100 1015.8
20260830105011 67 100 0.0 0.0 0.00 0.00 0.00 100 1015.8
20260830104511 67 99 0.0 0.0 0.00 0.00 0.00 100 1015.8
20260830104011 67 100 0.0 2.0 0.00 0.00 0.00 100 1015.7
20260830103511 67 99 0.0 2.0 0.00 0.00 0.00 100 1015.7
20260830103013 67 100 2.0 2.0 0.00 0.00 0.00 100 1015.7
20260830102511 67 99 0.0 0.0 0.00 0.00 0.00 100 1015.8
20260830102011 67 100 0.0 0.0 0.00 0.00 0.00 100 1015.8
20260830101511 67 100 0.0 2.0 0.00 0.00 0.00 100 1015.8
20260830101011 67 100 0.0 2.0 0.00 0.00 0.00 100 1015.7
20260830100011 67 99 0.0 0.0 0.00 0.00 0.00 100 1015.7
20260830095511 67 100 0.0 0.0 0.00 0.00 0.00 100 1015.8
20260830095011 67 100 0.0 0.0 0.00 0.00 0.00 100 1015.8
20260830094511 67 99 0.0 0.0 0.00 0.00 0.00 100 1015.8
20260830094011 68 99 0.0 0.0 0.00 0.00 0.00 100 1015.6
20260830093510 68 99 0.0 0.0 0.00 0.00 0.00 100 1015.6
20260830093011 68 99 0.0 0.0 0.00 0.00 0.00 100 1015.6
20260830092011 68 100 0.0 0.0 0.00 0.00 0.00 100 1015.5
20260830091510 68 100 0.0 0.0 0.00 0.00 0.00 100 1015.5
20260830091012 68 100 0.0 0.0 0.00 0.00 0.00 100 1015.4
20260830090512 68 100 0.0 0.0 0.00 0.00 0.00 100 1015.4
20260830090011 68 99 0.0 0.0 0.00 0.00 0.00 100 1015.4
20260830085510 68 99 0.0 0.0 0.00 0.00 0.00 100 1015.4
20260830085011 68 100 0.0 0.0 0.00 0.00 0.00 100 1015.4
20260830084511 68 99 0.0 0.0 0.00 0.00 0.00 100 1015.4
20260830084011 68 99 0.0 0.0 0.00 0.00 0.00 100 1015.3
20260830083512 68 100 0.0 0.0 0.00 0.00 0.00 100 1015.3
20260830083011 68 100 0.0 0.0 0.00 0.00 0.00 100 1015.3
20260830082511 68 99 0.0 0.0 0.00 0.00 0.00 100 1015.3
20260830082010 68 99 0.0 0.0 0.00 0.00 0.00 100 1015.3
20260830081511 68 99 0.0 0.0 0.00 0.00 0.00 100 1015.3
20260830080512 69 99 0.0 0.0 0.00 0.00 0.00 100 1015.2
20260830080011 69 100 0.0 0.0 0.00 0.00 0.00 100 1015.2
20260830075511 69 100 0.0 0.0 0.00 0.00 0.00 100 1015.2
20260830075011 69 100 0.0 0.0 0.00 0.00 0.00 100 1015.2
20260830074512 69 99 0.0 0.0 0.00 0.00 0.00 100 1015.2
20260830074010 69 99 0.0 0.0 0.00 0.00 0.00 100 1015.2
20260830073512 69 99 0.0 2.0 0.00 0.00 0.00 100 1015.2
20260830073012 69 100 0.0 3.0 0.00 0.00 0.00 100 1015.2
20260830072511 69 100 2.0 3.0 0.00 0.00 0.00 100 1015.3
20260830072012 69 100 0.0 0.0 0.00 0.00 0.00 100 1015.3
20260830071510 69 100 0.0 0.0 0.00 0.00 0.00 100 1015.3
20260830071010 69 99 0.0 0.0 0.00 0.00 0.00 100 1015.3
20260830070510 69 100 0.0 0.0 0.00 0.00 0.00 100 1015.3
20260830070011 69 100 0.0 0.0 0.00 0.00 0.00 100 1015.3
20260830065512 70 100 0.0 0.0 0.00 0.00 0.00 100 1015.4
20260830065012 70 99 0.0 0.0 0.00 0.00 0.00 100 1015.4
20260830064510 70 100 0.0 0.0 0.00 0.00 0.00 100 1015.4
20260830064010 70 100 0.0 0.0 0.00 0.00 0.00 100 1015.4
20260830063011 70 100 0.0 0.0 0.00 0.00 0.00 100 1015.4
20260830062511 70 100 0.0 0.0 0.00 0.00 0.00 100 1015.4
20260830062010 70 99 0.0 0.0 0.00 0.00 0.00 100 1015.4
20260830061012 70 99 0.0 0.0 0.00 0.00 0.00 100 1015.7
20260830060010 70 99 0.0 2.0 0.00 0.00 0.00 100 1015.7
20260830055511 70 99 0.0 2.0 0.00 0.00 0.00 100 1015.7
20260830055010 70 100 1.0 0.0 0.00 0.00 0.00 100 1015.7
20260830054510 70 99 0.0 0.0 0.00 0.00 0.00 100 1015.7
20260830054010 70 100 0.0 0.0 0.00 0.00 0.00 100 1015.7
20260830053510 71 100 0.0 0.0 0.00 0.00 0.00 100 1015.7
20260830053012 71 99 0.0 0.0 0.00 0.00 0.00 100 1015.7
20260830052511 71 100 0.0 0.0 0.00 0.00 0.00 100 1015.6
20260830052010 71 100 0.0 0.0 0.00 0.00 0.00 100 1015.6
20260830051512 71 100 0.0 0.0 0.00 0.00 0.00 100 1015.6
20260830051010 71 100 0.0 0.0 0.00 0.00 0.00 100 1015.5
20260830050510 71 99 0.0 0.0 0.00 0.00 0.00 100 1015.5
20260830050013 71 100 0.0 0.0 0.00 0.00 0.00 100 1015.5
20260830044511 72 99 0.0 0.0 0.00 0.00 0.00 100 1015.5
20260830043511 72 99 0.0 0.0 0.00 0.00 0.00 100 1015.4
20260830043011 72 100 0.0 0.0 0.00 0.00 0.00 100 1015.4
20260830042511 72 99 0.0 0.0 0.00 0.00 0.00 100 1015.4